Starlink 32756

operational
NORAD ID: 62752 Int'l Des: 2025-014 Owner: SPXS Country: US Constellation: starlink
LEOCIRCULAR

Über Starlink 32756

Beschreibung wird geladen...

Live-Position

3D-Globus wird geladen...

Nächste Überflüge

Höhenverlauf

Altitude vs Time

uPlot chart will show altitude changes over time

Zweizeiliger Elementsatz

1 62752U 25014T 25258.19836934 .00039535 00000-0 14372-2 0 9993
2 62752 43.0008 65.8655 0000489 276.7263 83.3533 15.27609903 36419
Epoch: 15. Sept. 2025 • Age: 26 hours

Aktueller Status

Höhe 483.9 km
Geschwindigkeit 7.63 km/s
Subsatellitenpunkt 32.19°N, 105.75°E
Startdatum 21. Jan. 2025
Alter 0.6 years
Typ internet

Technische Details

Klassifizierung Payload
Masse 730.00 kg
Trockenmasse 700.00 kg
Gesamtmasse 730.00 kg
Länge 0.30 m
Durchmesser 4.10 m
Spannweite 29.00 m
Form Box + pan
Hersteller SPXS
Bus-Typ Starlink V2M
Phasenstatus In Orbit
Besitzer/Staat SPXS/US

Große Konstellationen

Loading constellations...